Reflectivity
-20 -20 -20 -20 -20 -20 -20 -20 -20 -20 -20 -20 -20 -20 -20 -20 -20 -20 -11 -20 -20 20 -20 -20 -20 -20 -20 -20 -20 -20 -20 -20 -20 -20 -20 -20 -20 31 -20 -20 -20 -20 -20 -20
-20 -20 -20 -20 -20 -20 -20 -20 -20 -20 -20 -20 -20 -20 -20 -20 -20 -18 -17 -20 -20 -20 -20 -16 -20 -20 -20 -20 -20 -20 -20 -20 -20 -20 -20 -20 -20 -20 -20 -20 -20 -20 -20 -20
-20 -20 -20 -20 -20 -20 -20 -20 -20 -20 -20 -20 -20 -20 -20 -20 -20 -20 -20 -20 -20 -2 -16 -19 -20 -20 -20 -20 -20 -20 -20 -20 -20 -20 -20 -20 -13 -20 -6 -20 -20 -20 -20 -20
-20 -20 -20 -20 -20 -20 -20 -20 -20 -20 4 1 -20 -20 -20 -20 -20 -20 -20 -20 -20 -20 -20 -20 -20 -20 -20 -20 -20 -20 -20 -20 -20 -20 -20 -20 -20 -20 -20 -20 -20 -20 -20 -20
-20 -20 -20 -20 -20 -20 -20 -20 -20 -20 -20 -20 -20 -20 -20 -20 -20 -20 -20 -20 -20 -20 -20 -20 -20 -20 -20 -20 -20 -20 -20 -20 -20 -20 -20 -20 -20 -20 -20 -20 -20 -20 -20 -20
-20 -20 -20 -20 -20 -20 -20 -20 -20 -20 -20 -20 -20 -20 -20 -20 -20 -20 -20 -20 -20 -20 -20 -20 -20 -20 -20 -20 -20 -20 -20 -20 -20 -20 -20 -20 -20 -20 -20 -20 -20 -20 -20 -20
-20 -20 -20 -20 -20 -20 -20 -20 -20 -20 -20 -20 -20 -20 -20 -20 -20 -20 -20 -20 -20 -20 -20 -20 -20 -20 -20 -20 -20 -20 -20 -20 -20 -20 -20 -20 -20 -20 -20 -20 -20 -20 -20 -20
-20 -20 -20 -20 -20 -20 -20 -20 -20 -20 -20 -20 -20 -20 -20 -20 -20 -20 -20 -20 -20 -20 -20 -20 -20 -12 -20 -20 -20 -20 -20 -20 -20 -20 -20 -20 -20 -20 -20 -20 -20 -20 -20 -20
-20 -20 -20 -20 -20 -20 -20 -20 -20 -20 -20 -20 -20 -20 -20 -20 -20 -20 -20 -20 -20 -20 -20 -20 -20 -20 27 21 -20 -20 -20 -20 -20 -20 -20 -20 -20 -20 -20 -20 -20 -20 -20 -20
-20 -20 -20 -20 -20 -20 -20 -20 -20 -20 -20 -20 -20 -20 -20 -20 -20 -20 -20 -20 -20 -20 -20 -20 -20 -19 -14 -20 -17 -19 -20 -20 -20 -20 -20 -20 -20 -20 -20 -20 -20 -20 -20 -20
-20 -20 -20 -20 -20 -20 -20 -20 -20 -20 -20 -20 -20 -20 -20 -11 -20 -20 -20 -20 -20 -20 -20 -20 30 -20 -20 -20 -8 28 -10 -20 -20 -20 -20 -20 -20 -20 -20 -20 -20 -20 -20 -20
-20 -20 -20 -20 -20 -20 -20 -20 -20 -20 -20 -20 -20 -20 -20 -20 -20 -20 -20 -20 -20 -20 -20 -20 -18 -20 -20 -19 -20 -8 3 -4 -20 -20 -20 -20 -20 -20 -20 -20 -20 -20 -20 -20
-20 -20 -20 -20 -20 -20 -20 -20 -20 -20 -20 -20 -20 -20 -20 -20 -20 -20 -20 -20 -20 -20 -20 4 -20 -20 -11 -20 -20 -20 20 26 -12 -20 -20 -20 -20 -20 -20 -20 -20 -20 -20 -20
-20 -20 -20 -20 -20 -20 -20 -20 -20 -20 -20 -20 -20 -20 -20 -20 -20 -20 -20 -20 -20 -20 -20 -20 -20 -20 -13 19 -5 34 25 31 -8 6 -20 -20 -20 -20 -20 -20 -20 -20 -20 -20
-20 -20 -20 -20 -20 -20 -20 -20 -20 -20 -20 -20 -20 -20 -20 -20 -20 -20 -20 -20 -20 -20 -20 -20 -20 -20 -20 -16 -18 -4 16 30 33 30 -5 10 22 -20 -20 -20 -20 -20 -20 -20
-20 -20 -20 -20 -20 -20 -20 -20 -20 -20 -20 -20 -20 -20 -20 -20 -20 -20 -20 -20 -20 -20 -20 -20 -20 -20 -20 -20 -20 34 -20 16 30 24 -19 2 -14 30 9 -19 -20 -20 -20 -20
-20 -20 -20 -20 -20 -20 -20 -20 -20 -20 -20 -20 -20 -20 -20 -20 -20 -20 -20 -20 -20 -20 -20 -20 -20 -20 -20 -20 -20 -20 -20 -20 13 40 34 29 29 15 -10 29 29 15 -20 -20
-20 -20 -20 -20 -20 -20 -20 -20 -20 -20 -20 -20 -20 -20 -20 -20 -20 -20 -20 -20 -20 -20 -20 -20 -20 -20 -20 -20 -20 -20 -11 -9 3 -19 -0 22 38 -2 -18 27 4 -10 6 -20
-20 -20 -20 -20 -20 -20 -20 -20 -20 -20 -20 -20 -20 -20 -20 -20 -20 -20 -20 -20 -20 -20 -20 -20 -20 -20 -20 -20 -20 -20 -8 -13 -5 7 24 33 33 34 25 27 15 -20 -11 -20
-20 -20 -20 -20 -20 -20 -20 -20 -20 -20 -20 -20 -20 -20 -20 -20 -20 -20 -20 -20 -20 -3 -20 -2 -20 -19 -20 -20 -20 -20 -12 12 -5 27 7 -7 23 34 31 28 26 29 -20 -20
-20 -20 -20 -20 -20 -20 -20 -20 -20 -20 -20 -20 -20 -20 -20 -20 -20 -20 -20 -20 -20 6 -2 2 -20 -20 -20 -20 -20 -20 -20 -15 21 11 15 19 31 45 41 27 30 29 28 21
-20 -20 -20 -20 -20 -20 -20 -20 -20 -20 -20 -20 -20 -20 -20 -20 -20 -20 -20 -12 -8 -20 -17 -12 -20 -20 -20 -20 -20 -20 -10 23 32 38 28 21 31 29 35 31 43 48 38 20
-20 -20 -20 -20 -20 -20 -20 -20 -20 -20 -20 -20 -20 -20 -20 -18 -20 -19 -20 -20 -17 -20 -20 -20 -20 -20 -20 -20 9 -16 -19 19 28 36 39 37 41 39 36 35 33 33 25 30
-20 -20 -20 -20 -20 -20 -20 -20 -20 -20 -20 -20 -20 -20 -20 -8 28 20 25 4 -10 -8 -20 -20 -20 15 -20 -20 -8 -19 5 0 31 36 35 22 37 34 36 30 33 33 33 31
-20 -20 -20 -20 -20 -20 -20 -20 -20 -20 -20 -20 -20 -20 -14 -20 -20 -18 -19 3 -20 -20 -20 -14 18 -20 -17 -13 -6 -2 17 7 32 31 30 30 36 32 29 28 34 28 30 24
-20 -20 -20 -20 -20 -20 -20 -20 -20 -20 -20 -20 -20 -20 -19 -20 -20 -20 -5 -20 -20 -20 -20 -20 -20 -16 -16 -6 17 -11 12 24 24 13 24 18 26 21 16 20 21 23 21 21
Wind_Speed
2 4 6 11 8 8 4 6 11 5 9 7 13 5 9 8 5 7 6 6 4 8 9 14 18 18 17 14 14 14 10 8 7 4 4 2 3 2 1 4 5 4 4 5
5 7 12 7 8 7 7 7 3 2 10 5 9 13 10 12 14 13 9 11 7 6 9 13 18 18 18 17 16 13 12 9 5 4 3 3 3 2 3 3 2 5 6 5
8 13 9 8 11 9 8 9 9 8 13 11 8 7 9 9 5 10 11 6 6 9 14 12 18 19 16 15 15 14 11 11 7 5 4 3 4 3 0 1 3 4 6 6
8 15 11 9 9 6 6 3 14 14 11 6 7 5 5 11 17 14 17 11 12 13 8 15 17 18 18 16 15 13 12 11 8 8 5 6 5 4 4 4 3 4 6 6
11 7 5 8 7 4 6 3 8 6 5 4 1 4 7 7 11 19 19 17 16 15 13 14 20 20 18 15 14 13 13 11 8 9 8 5 5 4 3 3 5 3 3 5
9 8 6 8 2 2 3 7 9 5 3 3 7 7 7 5 12 16 16 20 16 14 13 13 16 17 15 13 13 12 13 11 9 8 8 8 7 6 3 4 4 4 4 4
7 5 4 4 2 5 7 8 4 5 4 7 2 5 9 6 7 17 21 18 16 11 13 14 10 17 15 16 15 13 14 13 11 10 9 8 8 7 7 6 5 5 3 3
4 8 6 3 6 6 3 10 8 6 4 7 2 4 5 3 6 9 12 10 10 10 11 14 12 18 18 18 17 17 16 15 11 11 11 8 8 5 5 5 4 4 4 4
5 7 2 7 5 10 2 1 8 6 1 3 2 2 3 7 7 5 1 5 9 8 10 13 14 12 17 17 18 19 17 15 14 13 11 9 8 7 7 7 5 4 5 4
6 3 2 5 5 1 10 5 5 4 2 2 3 1 5 1 2 1 5 8 9 5 9 9 8 7 17 19 18 18 17 18 15 14 11 10 11 9 7 6 7 6 5 5
3 5 7 4 3 8 1 1 4 6 5 5 2 6 4 2 2 3 4 4 2 8 7 7 6 7 10 16 19 17 16 16 14 14 12 11 10 10 7 7 6 7 5 6
2 7 1 5 5 3 7 9 7 7 6 2 5 6 3 3 6 4 2 1 4 2 3 3 3 4 7 7 10 14 14 15 16 15 12 12 10 10 9 8 7 7 7 6
0 2 4 10 9 8 6 2 2 3 4 5 6 6 4 3 7 4 5 6 6 9 9 6 1 5 3 2 5 6 8 14 12 12 13 11 12 11 11 9 8 7 7 7
10 3 7 8 7 3 5 8 3 5 4 4 6 5 4 1 6 5 5 3 6 7 6 5 3 2 2 3 5 5 6 6 8 10 12 12 12 13 12 10 10 9 7 7
7 5 5 6 6 2 4 7 7 3 6 6 3 5 5 5 6 5 4 4 8 6 6 5 3 2 5 6 6 6 4 4 6 7 4 3 6 9 10 10 11 10 9 9
2 2 4 2 4 4 3 6 6 5 4 5 4 1 4 4 5 2 3 5 6 2 3 4 5 4 4 1 4 5 7 7 7 8 8 3 4 8 11 11 11 10 9 7
7 6 4 2 3 3 4 3 2 3 6 2 3 5 6 5 6 6 6 6 5 2 2 5 4 4 4 1 3 5 7 9 10 10 10 6 7 6 13 10 9 10 10 8
7 7 4 3 5 3 8 3 4 6 3 5 1 4 9 1 3 5 3 4 2 3 2 2 3 3 5 5 5 4 6 10 9 8 8 9 9 13 15 10 9 7 5 6
7 6 3 5 5 4 1 1 2 3 3 3 3 3 4 4 1 1 4 3 3 5 2 2 2 3 5 5 5 5 5 5 10 10 10 12 5 15 13 10 7 6 7 8
7 6 7 3 5 6 8 4 3 4 3 1 3 6 6 5 1 6 5 5 3 3 3 1 4 3 4 5 6 6 5 4 11 12 11 11 2 5 6 7 7 4 9 10
4 3 6 3 3 5 4 6 4 3 7 5 4 5 8 7 6 2 7 4 4 3 1 1 1 2 3 5 5 5 5 11 9 10 11 14 16 8 12 7 8 10 9 9
7 6 3 4 3 4 6 2 4 6 2 6 4 4 4 4 6 6 7 6 3 4 3 1 2 2 4 5 2 4 7 8 11 12 10 12 10 8 8 12 9 8 11 11
2 6 6 7 8 4 2 2 2 7 6 6 5 2 3 5 6 8 7 6 4 4 2 3 3 3 4 3 5 5 6 7 14 10 12 14 13 12 11 11 8 8 8 9
1 3 4 4 3 5 6 6 3 4 7 7 6 6 6 5 6 8 7 6 4 3 5 5 5 3 3 6 5 6 5 6 13 8 7 6 10 11 9 8 7 7 5 5
4 3 6 3 9 10 5 5 8 9 7 6 7 5 6 7 5 9 9 5 4 5 5 4 3 5 4 5 4 5 6 4 9 10 7 6 8 8 9 7 5 4 3 3
4 5 5 6 9 6 6 9 9 5 2 4 6 5 2 5 6 8 6 4 3 4 3 3 5 6 6 6 6 6 6 7 8 7 7 6 6 5 6 6 5 11 8 9
Wind_Direction
273 71 225 236 201 216 231 247 168 215 161 166 200 219 224 224 240 228 217 230 189 164 178 157 165 160 161 162 165 168 161 163 152 154 131 123 152 207 228 240 205 179 188 145
13 237 237 262 281 269 272 194 174 104 171 146 189 226 209 209 218 215 200 220 195 153 148 150 159 164 169 170 169 167 172 151 175 157 148 152 145 202 240 203 239 201 182 141
178 240 214 220 265 270 274 173 176 167 192 211 145 283 181 229 259 225 229 215 182 182 170 158 161 168 169 171 172 172 178 163 169 178 123 92 93 64 263 297 241 211 187 166
215 254 227 241 237 185 205 97 183 162 149 205 156 245 252 193 210 217 231 180 182 193 178 160 173 170 176 178 173 175 178 170 159 165 161 154 168 170 212 195 210 205 212 184
259 274 205 206 187 158 217 22 133 143 173 99 287 49 270 151 212 217 210 218 192 199 197 166 174 181 180 172 177 178 174 167 168 167 165 164 165 194 190 195 195 215 231 199
242 242 181 201 159 140 82 59 40 54 111 18 210 152 279 194 213 210 209 218 204 197 198 195 174 180 177 175 172 174 174 174 173 172 169 181 188 186 185 211 192 212 212 205
326 290 294 127 132 12 79 61 3 358 15 221 125 145 243 296 245 200 201 208 209 184 186 195 181 179 181 178 175 177 179 188 180 177 174 174 193 186 202 194 189 184 206 220
181 317 192 209 155 176 177 141 155 193 187 258 339 211 257 291 312 206 212 203 196 188 185 197 187 178 181 182 178 180 185 185 185 185 187 175 174 177 204 202 203 203 198 216
168 266 144 161 163 126 265 119 186 119 71 42 244 318 2 6 29 47 233 178 221 177 188 200 205 173 183 186 183 187 189 187 186 193 192 185 179 175 196 204 203 204 220 226
211 33 272 186 66 329 147 187 50 14 157 291 320 246 216 216 70 333 275 241 224 167 160 192 178 202 185 185 190 189 189 191 188 186 194 193 188 187 190 194 208 208 226 226
112 98 299 87 175 190 343 341 78 115 138 164 180 263 249 129 302 192 254 283 180 190 162 144 175 176 197 194 192 188 189 190 188 191 187 195 194 189 185 188 214 200 189 183
34 129 156 231 274 249 192 198 144 128 246 166 148 267 267 129 189 179 194 146 54 131 198 143 100 164 153 159 191 195 187 190 192 192 189 188 193 193 187 193 204 184 198 194
163 19 43 347 354 4 32 23 176 128 101 192 139 251 83 100 110 89 28 28 32 1 357 21 159 294 7 78 127 142 195 201 192 189 186 190 189 191 200 194 200 201 206 208
85 90 142 183 202 191 319 310 319 113 109 177 208 178 218 159 108 73 113 62 59 95 43 27 350 302 245 284 122 260 192 209 181 187 188 189 198 196 197 194 199 201 202 205
102 174 188 206 224 266 248 291 311 207 210 154 231 183 237 172 157 155 100 42 78 95 121 117 81 185 200 216 220 201 178 158 135 124 112 275 244 209 196 194 199 196 192 206
56 227 160 270 289 305 310 347 321 83 112 123 118 59 237 177 122 101 95 109 119 114 63 62 61 74 57 121 232 213 178 158 157 143 134 91 34 292 218 205 200 190 187 195
138 133 97 250 7 2 13 231 69 62 51 84 103 226 177 251 216 177 172 145 125 256 145 79 4 6 9 293 196 176 186 179 194 221 175 169 227 267 252 208 198 190 182 180
135 130 126 184 45 29 244 42 96 110 57 350 67 240 191 200 125 141 125 129 158 183 106 28 321 345 336 343 338 284 204 170 174 199 200 192 267 278 239 198 189 189 172 171
141 122 113 133 164 275 189 249 161 139 276 305 103 186 84 84 82 233 164 155 174 191 224 242 272 338 334 335 304 281 238 246 167 174 183 167 238 245 215 185 168 149 134 116
85 83 122 113 140 199 231 204 183 99 281 252 147 184 163 133 176 247 169 151 116 107 257 329 349 18 12 318 330 317 52 294 215 189 186 190 183 160 139 120 121 98 106 108
82 39 145 139 179 294 233 184 143 135 238 188 187 211 168 194 202 141 122 112 125 143 16 80 45 3 289 313 352 317 346 54 353 187 180 169 171 151 106 113 119 111 103 96
156 133 174 88 103 247 190 118 193 197 39 174 212 227 225 158 114 112 117 123 155 108 103 127 86 339 360 330 25 334 35 51 42 37 60 95 92 91 103 99 94 116 113 106
84 168 177 157 207 229 48 155 291 162 155 196 193 200 140 141 152 136 123 120 110 90 97 61 63 358 16 352 50 47 8 52 65 49 58 64 73 84 73 85 82 81 78 90
349 132 108 91 238 111 115 98 97 148 162 157 171 193 139 124 131 130 124 111 99 104 74 52 56 40 25 36 53 61 48 86 99 80 65 84 90 79 84 90 80 84 89 94
199 12 137 89 84 78 30 135 166 166 152 159 138 132 141 152 173 153 122 107 110 87 70 58 53 59 40 48 64 74 65 81 110 107 87 74 70 82 76 49 66 103 74 141
174 185 148 210 179 140 193 192 195 159 192 174 156 109 56 144 157 103 106 127 97 101 96 99 68 61 44 71 67 69 79 99 97 88 95 93 92 85 97 96 77 41 64 67